This is the latest recevied weather packets stored in our database for station/object ES2ADF-5. If no packets are shown the sender has not sent any weather packets the latest 10 day(s).
| Time | Temp. | Humidity | Pressure | Rain* | Wind** | Luminosity | Snow |
|---|---|---|---|---|---|---|---|
| 1777877035 | 12.22° C | 66% | 1002.6 hPa | 0 mm | - | - | - |
| 1777876735 | 12.22° C | 65% | 1002.7 hPa | 0 mm | - | - | - |
| 1777876435 | 12.78° C | 64% | 1002.8 hPa | 0 mm | - | - | - |
| 1777876137 | 12.78° C | 64% | 1002.5 hPa | 0 mm | - | - | - |
| 1777875834 | 13.33° C | 62% | 1002.3 hPa | 0 mm | - | - | - |
| 1777875534 | 14.44° C | 62% | 1002.4 hPa | 0 mm | - | - | - |
| 1777875234 | 14.44° C | 63% | 1002.6 hPa | 0 mm | - | - | - |
| 1777874933 | 13.89° C | 64% | 1002.7 hPa | 0 mm | - | - | - |
| 1777874633 | 13.33° C | 66% | 1002.7 hPa | 0 mm | - | - | - |
| 1777874333 | 12.22° C | 68% | 1003 hPa | 0 mm | - | - | - |
| 1777874032 | 11.67° C | 67% | 1003 hPa | 0 mm | - | - | - |
| 1777873732 | 11.67° C | 67% | 1003 hPa | 0 mm | - | - | - |
| 1777873432 | 11.67° C | 67% | 1003.3 hPa | 0 mm | - | - | - |
| 1777873132 | 12.22° C | 68% | 1003.2 hPa | 0 mm | - | - | - |
| 1777872831 | 11.67° C | 69% | 1003.1 hPa | 0 mm | - | - | - |
| 1777872531 | 11.67° C | 70% | 1003.1 hPa | 0 mm | - | - | - |
| 1777872231 | 11.11° C | 70% | 1003.4 hPa | 0 mm | - | - | - |
| 1777871930 | 11.11° C | 71% | 1003.3 hPa | 0 mm | - | - | - |
| 1777871630 | 11.11° C | 72% | 1003.4 hPa | 0 mm | - | - | - |
| 1777871330 | 10.56° C | 72% | 1003.6 hPa | 0 mm | - | - | - |
| 1777871030 | 10.56° C | 72% | 1003.6 hPa | 0 mm | - | - | - |
| 1777870729 | 10.56° C | 71% | 1003.9 hPa | 0 mm | - | - | - |
| 1777870429 | 11.11° C | 70% | 1003.8 hPa | 0 mm | - | - | - |
| 1777870129 | 11.11° C | 69% | 1003.9 hPa | 0 mm | - | - | - |
| 1777869828 | 11.67° C | 68% | 1003.8 hPa | 0 mm | - | - | - |
* Rain latest hour (hover to see other rain measurements)
** Current wind speed in m/s (hover to see current wind gust speed)